Time,TemperatureF,DewpointF,PressureIn,WindDirection,WindDirectionDegrees,WindSpeedMPH,WindSpeedGustMPH,Humidity,HourlyPrecipIn,Conditions,Clouds,dailyrainin,SoftwareType,DateUTC
2013-06-13 00:02:00,62.0,35.0,-100.00,SE,125,9.0,14.0,35,0.00,,,-99.99,,2013-06-13 06:02:00,
2013-06-13 00:11:00,63.0,35.0,-100.00,SE,130,9.0,14.0,34,0.00,,,-99.99,,2013-06-13 06:11:00,
2013-06-13 00:22:00,63.0,35.0,-100.00,SE,130,9.0,14.0,34,0.00,,,-99.99,,2013-06-13 06:22:00,
2013-06-13 00:33:00,61.0,33.0,-100.00,SE,145,7.0,12.0,35,0.00,,,-99.99,,2013-06-13 06:33:00,
2013-06-13 00:44:00,59.0,33.0,-100.00,SE,135,8.0,12.0,36,0.00,,,-99.99,,2013-06-13 06:44:00,
2013-06-13 00:52:00,59.0,33.0,-100.00,SSE,155,1.0,12.0,37,0.00,,,-99.99,,2013-06-13 06:52:00,
2013-06-13 01:01:00,58.0,32.0,-100.00,SE,125,7.0,9.0,37,0.00,,,-99.99,,2013-06-13 07:01:00,
2013-06-13 01:11:00,58.0,33.0,-100.00,SSE,155,5.0,10.0,38,0.00,,,-99.99,,2013-06-13 07:11:00,
2013-06-13 01:22:00,57.0,32.0,-100.00,SE,140,4.0,12.0,38,0.00,,,-99.99,,2013-06-13 07:22:00,
2013-06-13 01:33:00,57.0,32.0,-100.00,SE,140,3.0,10.0,39,0.00,,,-99.99,,2013-06-13 07:33:00,
2013-06-13 01:42:00,58.0,33.0,-100.00,SE,135,3.0,11.0,38,0.00,,,-99.99,,2013-06-13 07:42:00,
2013-06-13 01:52:00,59.0,33.0,-100.00,SW,215,1.0,14.0,37,0.00,,,-99.99,,2013-06-13 07:52:00,
2013-06-13 02:01:00,58.0,33.0,-100.00,West,265,1.0,7.0,37,0.00,,,-99.99,,2013-06-13 08:01:00,
2013-06-13 02:11:00,56.0,32.0,-100.00,WNW,300,0.0,8.0,39,0.00,,,-99.99,,2013-06-13 08:11:00,
2013-06-13 02:22:00,55.0,31.0,-100.00,West,260,1.0,2.0,40,0.00,,,-99.99,,2013-06-13 08:22:00,
2013-06-13 02:32:00,55.0,32.0,-100.00,WNW,285,0.0,3.0,41,0.00,,,-99.99,,2013-06-13 08:32:00,
2013-06-13 02:43:00,53.0,31.0,-100.00,South,170,0.0,1.0,43,0.00,,,-99.99,,2013-06-13 08:43:00,
2013-06-13 02:52:00,53.0,32.0,-100.00,SSE,150,0.0,3.0,43,0.00,,,-99.99,,2013-06-13 08:52:00,
2013-06-13 03:02:00,53.0,32.0,-100.00,NNW,335,1.0,3.0,43,0.00,,,-99.99,,2013-06-13 09:02:00,
2013-06-13 03:11:00,53.0,32.0,-100.00,SW,225,0.0,3.0,44,0.00,,,-99.99,,2013-06-13 09:11:00,
2013-06-13 03:22:00,53.0,32.0,-100.00,SW,215,0.0,0.0,44,0.00,,,-99.99,,2013-06-13 09:22:00,
2013-06-13 03:32:00,53.0,32.0,-100.00,South,170,1.0,2.0,45,0.00,,,-99.99,,2013-06-13 09:32:00,
2013-06-13 03:42:00,53.0,33.0,-100.00,SW,225,0.0,7.0,45,0.00,,,-99.99,,2013-06-13 09:42:00,
2013-06-13 03:52:00,53.0,32.0,-100.00,SSW,210,0.0,4.0,45,0.00,,,-99.99,,2013-06-13 09:52:00,
2013-06-13 04:01:00,52.0,33.0,-100.00,WSW,245,0.0,2.0,46,0.00,,,-99.99,,2013-06-13 10:01:00,
2013-06-13 04:11:00,51.0,33.0,-100.00,WSW,250,0.0,0.0,48,0.00,,,-99.99,,2013-06-13 10:11:00,
2013-06-13 04:22:00,51.0,33.0,-100.00,SW,235,0.0,0.0,49,0.00,,,-99.99,,2013-06-13 10:22:00,
2013-06-13 04:33:00,53.0,34.0,-100.00,SE,135,4.0,6.0,47,0.00,,,-99.99,,2013-06-13 10:33:00,
2013-06-13 04:42:00,54.0,34.0,-100.00,SE,125,2.0,9.0,46,0.00,,,-99.99,,2013-06-13 10:42:00,
2013-06-13 04:53:00,54.0,34.0,-100.00,SSW,200,1.0,7.0,45,0.00,,,-99.99,,2013-06-13 10:53:00,
2013-06-13 05:02:00,53.0,33.0,-100.00,SSE,155,1.0,6.0,46,0.00,,,-99.99,,2013-06-13 11:02:00,
2013-06-13 05:11:00,53.0,33.0,-100.00,South,170,1.0,2.0,47,0.00,,,-99.99,,2013-06-13 11:11:00,
2013-06-13 05:23:00,52.0,33.0,-100.00,West,265,0.0,4.0,48,0.00,,,-99.99,,2013-06-13 11:23:00,
2013-06-13 05:32:00,52.0,33.0,-100.00,SE,145,3.0,6.0,49,0.00,,,-99.99,,2013-06-13 11:32:00,
2013-06-13 05:42:00,52.0,34.0,-100.00,South,190,0.0,6.0,49,0.00,,,-99.99,,2013-06-13 11:42:00,
2013-06-13 05:52:00,51.0,34.0,-100.00,SW,220,0.0,0.0,51,0.00,,,-99.99,,2013-06-13 11:52:00,
2013-06-13 06:01:00,52.0,35.0,-100.00,South,190,0.0,7.0,51,0.00,,,-99.99,,2013-06-13 12:01:00,
2013-06-13 06:11:00,51.0,35.0,-100.00,SSE,150,0.0,2.0,52,0.00,,,-99.99,,2013-06-13 12:11:00,
2013-06-13 06:22:00,51.0,35.0,-100.00,SW,220,0.0,5.0,54,0.00,,,-99.99,,2013-06-13 12:22:00,
2013-06-13 06:34:00,51.0,36.0,-100.00,SSE,165,0.0,3.0,56,0.00,,,-99.99,,2013-06-13 12:34:00,
2013-06-13 06:42:00,51.0,36.0,-100.00,ESE,115,0.0,3.0,57,0.00,,,-99.99,,2013-06-13 12:42:00,
2013-06-13 06:52:00,52.0,38.0,-100.00,SE,125,0.0,3.0,58,0.00,,,-99.99,,2013-06-13 12:52:00,
2013-06-13 07:01:00,51.0,37.0,-100.00,SE,145,1.0,7.0,58,0.00,,,-99.99,,2013-06-13 13:01:00,
2013-06-13 07:11:00,52.0,38.0,-100.00,SE,125,2.0,6.0,58,0.00,,,-99.99,,2013-06-13 13:11:00,
2013-06-13 07:21:00,53.0,38.0,-100.00,SSW,205,2.0,7.0,57,0.00,,,-99.99,,2013-06-13 13:21:00,
2013-06-13 07:32:00,53.0,39.0,-100.00,SE,135,3.0,6.0,57,0.00,,,-99.99,,2013-06-13 13:32:00,
2013-06-13 07:43:00,54.0,38.0,-100.00,SE,145,4.0,7.0,55,0.00,,,-99.99,,2013-06-13 13:43:00,
2013-06-13 07:53:00,56.0,39.0,-100.00,ESE,120,4.0,9.0,53,0.00,,,-99.99,,2013-06-13 13:53:00,
2013-06-13 08:02:00,57.0,39.0,-100.00,East,85,1.0,9.0,51,0.00,,,-99.99,,2013-06-13 14:02:00,
2013-06-13 08:11:00,58.0,40.0,-100.00,SW,230,0.0,6.0,51,0.00,,,-99.99,,2013-06-13 14:11:00,
2013-06-13 08:22:00,58.0,41.0,-100.00,ESE,120,1.0,3.0,53,0.00,,,-99.99,,2013-06-13 14:22:00,
2013-06-13 08:33:00,59.0,42.0,-100.00,SW,235,0.0,2.0,53,0.00,,,-99.99,,2013-06-13 14:33:00,
2013-06-13 08:43:00,60.0,43.0,-100.00,SSW,205,0.0,2.0,53,0.00,,,-99.99,,2013-06-13 14:43:00,
2013-06-13 08:53:00,60.0,43.0,-100.00,NNW,330,1.0,4.0,53,0.00,,,-99.99,,2013-06-13 14:53:00,
2013-06-13 09:01:00,60.0,44.0,-100.00,SW,220,0.0,2.0,54,0.00,,,-99.99,,2013-06-13 15:01:00,
2013-06-13 09:12:00,61.0,44.0,-100.00,SW,230,0.0,1.0,54,0.00,,,-99.99,,2013-06-13 15:12:00,
2013-06-13 09:22:00,62.0,45.0,-100.00,NW,325,3.0,5.0,53,0.00,,,-99.99,,2013-06-13 15:22:00,
2013-06-13 09:33:00,63.0,46.0,-100.00,NNE,25,0.0,4.0,53,0.00,,,-99.99,,2013-06-13 15:33:00,
2013-06-13 09:53:00,66.0,47.0,-100.00,West,270,0.0,2.0,49,0.00,,,-99.99,,2013-06-13 15:53:00,
2013-06-13 10:01:00,66.0,47.0,-100.00,West,270,0.0,4.0,50,0.00,,,-99.99,,2013-06-13 16:01:00,
2013-06-13 10:12:00,66.0,46.0,-100.00,NW,325,2.0,4.0,48,0.00,,,-99.99,,2013-06-13 16:12:00,
2013-06-13 10:22:00,68.0,47.0,-100.00,East,95,0.0,4.0,46,0.00,,,-99.99,,2013-06-13 16:22:00,
2013-06-13 10:33:00,72.0,49.0,-100.00,East,80,0.0,1.0,43,0.00,,,-99.99,,2013-06-13 16:33:00,
2013-06-13 10:43:00,72.0,48.0,-100.00,West,260,0.0,4.0,43,0.00,,,-99.99,,2013-06-13 16:43:00,
2013-06-13 10:53:00,73.0,48.0,-100.00,NW,315,1.0,3.0,41,0.00,,,-99.99,,2013-06-13 16:53:00,
2013-06-13 11:02:00,75.0,49.0,-100.00,NNW,330,4.0,6.0,39,0.00,,,-99.99,,2013-06-13 17:02:00,
2013-06-13 11:11:00,77.0,50.0,-100.00,SW,220,1.0,6.0,39,0.00,,,-99.99,,2013-06-13 17:11:00,
2013-06-13 11:24:00,76.0,49.0,-100.00,North,0,1.0,6.0,37,0.00,,,-99.99,,2013-06-13 17:24:00,
2013-06-13 11:33:00,76.0,48.0,-100.00,SSE,165,0.0,6.0,37,0.00,,,-99.99,,2013-06-13 17:33:00,
2013-06-13 11:43:00,77.0,50.0,-100.00,ESE,105,0.0,2.0,38,0.00,,,-99.99,,2013-06-13 17:43:00,
2013-06-13 11:53:00,76.0,49.0,-100.00,North,0,2.0,4.0,39,0.00,,,-99.99,,2013-06-13 17:53:00,
2013-06-13 12:02:00,75.0,50.0,-100.00,WSW,240,1.0,6.0,42,0.00,,,-99.99,,2013-06-13 18:02:00,
2013-06-13 12:11:00,74.0,49.0,-100.00,WSW,255,1.0,4.0,41,0.00,,,-99.99,,2013-06-13 18:11:00,
2013-06-13 12:22:00,76.0,49.0,-100.00,NNW,340,3.0,14.0,39,0.00,,,-99.99,,2013-06-13 18:22:00,
2013-06-13 12:33:00,76.0,50.0,-100.00,ESE,110,1.0,4.0,39,0.00,,,-99.99,,2013-06-13 18:33:00,
2013-06-13 12:43:00,78.0,48.0,-100.00,NW,320,3.0,12.0,34,0.00,,,-99.99,,2013-06-13 18:43:00,
2013-06-13 12:52:00,80.0,46.0,-100.00,NW,320,2.0,7.0,30,0.00,,,-99.99,,2013-06-13 18:52:00,
2013-06-13 13:01:00,82.0,48.0,-100.00,ENE,75,1.0,6.0,30,0.00,,,-99.99,,2013-06-13 19:01:00,
2013-06-13 13:11:00,86.0,49.0,-100.00,East,100,3.0,7.0,27,0.00,,,-99.99,,2013-06-13 19:11:00,
2013-06-13 13:22:00,85.0,47.0,-100.00,South,190,1.0,4.0,26,0.00,,,-99.99,,2013-06-13 19:22:00,
2013-06-13 13:33:00,84.0,46.0,-100.00,SW,230,4.0,9.0,26,0.00,,,-99.99,,2013-06-13 19:33:00,
2013-06-13 13:43:00,85.0,46.0,-100.00,SSE,165,4.0,15.0,25,0.00,,,-99.99,,2013-06-13 19:43:00,
2013-06-13 13:53:00,84.0,44.0,-100.00,North,0,3.0,10.0,24,0.00,,,-99.99,,2013-06-13 19:53:00,
2013-06-13 14:01:00,84.0,45.0,-100.00,West,260,0.0,13.0,25,0.00,,,-99.99,,2013-06-13 20:01:00,
2013-06-13 14:11:00,87.0,47.0,-100.00,WNW,285,4.0,14.0,25,0.00,,,-99.99,,2013-06-13 20:11:00,
2013-06-13 14:22:00,87.0,46.0,-100.00,NW,320,4.0,10.0,24,0.00,,,-99.99,,2013-06-13 20:22:00,
2013-06-13 14:32:00,85.0,45.0,-100.00,WNW,295,7.0,16.0,24,0.00,,,-99.99,,2013-06-13 20:32:00,
2013-06-13 14:44:00,85.0,45.0,-100.00,WSW,255,2.0,18.0,24,0.00,,,-99.99,,2013-06-13 20:44:00,
2013-06-13 14:53:00,85.0,45.0,-100.00,SSE,155,2.0,12.0,24,0.00,,,-99.99,,2013-06-13 20:53:00,
2013-06-13 15:02:00,84.0,44.0,-100.00,WSW,245,1.0,15.0,25,0.00,,,-99.99,,2013-06-13 21:02:00,
2013-06-13 15:11:00,83.0,44.0,-100.00,South,190,1.0,11.0,25,0.00,,,-99.99,,2013-06-13 21:11:00,
2013-06-13 15:22:00,82.0,43.0,-100.00,SW,215,2.0,17.0,25,0.00,,,-99.99,,2013-06-13 21:22:00,
2013-06-13 15:34:00,83.0,43.0,-100.00,West,270,5.0,13.0,25,0.00,,,-99.99,,2013-06-13 21:34:00,
2013-06-13 15:43:00,83.0,43.0,-100.00,West,270,2.0,17.0,24,0.00,,,-99.99,,2013-06-13 21:43:00,
2013-06-13 15:52:00,85.0,45.0,-100.00,NW,315,4.0,10.0,24,0.00,,,-99.99,,2013-06-13 21:52:00,
2013-06-13 16:02:00,85.0,44.0,-100.00,NW,305,9.0,19.0,24,0.00,,,-99.99,,2013-06-13 22:02:00,
2013-06-13 16:11:00,86.0,46.0,-100.00,West,270,2.0,9.0,24,0.00,,,-99.99,,2013-06-13 22:11:00,
2013-06-13 16:22:00,86.0,45.0,-100.00,West,280,3.0,17.0,23,0.00,,,-99.99,,2013-06-13 22:22:00,
2013-06-13 16:32:00,87.0,46.0,-100.00,SSW,195,2.0,6.0,23,0.00,,,-99.99,,2013-06-13 22:32:00,
2013-06-13 16:42:00,85.0,44.0,-100.00,West,265,2.0,8.0,23,0.00,,,-99.99,,2013-06-13 22:42:00,
2013-06-13 16:52:00,85.0,44.0,-100.00,WNW,300,2.0,7.0,23,0.00,,,-99.99,,2013-06-13 22:52:00,
2013-06-13 17:02:00,84.0,43.0,-100.00,SSW,200,1.0,7.0,23,0.00,,,-99.99,,2013-06-13 23:02:00,
2013-06-13 17:11:00,84.0,43.0,-100.00,North,10,3.0,10.0,23,0.00,,,-99.99,,2013-06-13 23:11:00,
2013-06-13 17:22:00,83.0,43.0,-100.00,WNW,300,3.0,7.0,24,0.00,,,-99.99,,2013-06-13 23:22:00,
2013-06-13 17:32:00,84.0,44.0,-100.00,SSW,200,0.0,9.0,24,0.00,,,-99.99,,2013-06-13 23:32:00,
2013-06-13 17:43:00,84.0,43.0,-100.00,NNW,340,3.0,6.0,23,0.00,,,-99.99,,2013-06-13 23:43:00,
2013-06-13 17:52:00,85.0,44.0,-100.00,West,275,0.0,4.0,23,0.00,,,-99.99,,2013-06-13 23:52:00,
2013-06-13 18:01:00,83.0,42.0,-100.00,SE,140,6.0,13.0,23,0.00,,,-99.99,,2013-06-14 00:01:00,
2013-06-13 18:11:00,83.0,42.0,-100.00,SE,130,4.0,6.0,23,0.00,,,-99.99,,2013-06-14 00:11:00,
2013-06-13 18:22:00,82.0,43.0,-100.00,ENE,75,2.0,6.0,25,0.00,,,-99.99,,2013-06-14 00:22:00,
2013-06-13 18:34:00,82.0,43.0,-100.00,NW,325,0.0,1.0,25,0.00,,,-99.99,,2013-06-14 00:34:00,
2013-06-13 18:43:00,81.0,44.0,-100.00,NE,45,1.0,4.0,26,0.00,,,-99.99,,2013-06-14 00:43:00,
2013-06-13 18:53:00,81.0,43.0,-100.00,South,190,0.0,4.0,26,0.00,,,-99.99,,2013-06-14 00:53:00,
2013-06-13 19:01:00,78.0,44.0,-100.00,SE,135,0.0,0.0,29,0.00,,,-99.99,,2013-06-14 01:01:00,
2013-06-13 19:11:00,76.0,44.0,-100.00,ESE,105,1.0,4.0,31,0.00,,,-99.99,,2013-06-14 01:11:00,
2013-06-13 19:22:00,74.0,44.0,-100.00,SSW,195,0.0,2.0,34,0.00,,,-99.99,,2013-06-14 01:22:00,
2013-06-13 19:32:00,75.0,46.0,-100.00,ESE,110,6.0,7.0,35,0.00,,,-99.99,,2013-06-14 01:32:00,
2013-06-13 19:43:00,75.0,47.0,-100.00,SW,230,0.0,7.0,36,0.00,,,-99.99,,2013-06-14 01:43:00,
2013-06-13 19:52:00,75.0,46.0,-100.00,ESE,110,6.0,10.0,35,0.00,,,-99.99,,2013-06-14 01:52:00,
2013-06-13 20:02:00,75.0,46.0,-100.00,SW,215,0.0,6.0,36,0.00,,,-99.99,,2013-06-14 02:02:00,
2013-06-13 20:11:00,72.0,46.0,-100.00,ESE,120,4.0,6.0,38,0.00,,,-99.99,,2013-06-14 02:11:00,
2013-06-13 20:22:00,71.0,45.0,-100.00,WSW,250,0.0,7.0,39,0.00,,,-99.99,,2013-06-14 02:22:00,
2013-06-13 20:32:00,70.0,45.0,-100.00,NE,45,2.0,4.0,39,0.00,,,-99.99,,2013-06-14 02:32:00,
2013-06-13 20:43:00,71.0,45.0,-100.00,SSW,210,0.0,3.0,38,0.00,,,-99.99,,2013-06-14 02:43:00,
2013-06-13 20:52:00,72.0,43.0,-100.00,SE,140,3.0,12.0,35,0.00,,,-99.99,,2013-06-14 02:52:00,
2013-06-13 21:02:00,75.0,43.0,-100.00,SE,145,6.0,15.0,32,0.00,,,-99.99,,2013-06-14 03:02:00,
2013-06-13 21:11:00,75.0,42.0,-100.00,SE,125,6.0,14.0,31,0.00,,,-99.99,,2013-06-14 03:11:00,
2013-06-13 21:22:00,74.0,42.0,-100.00,SSE,150,5.0,12.0,30,0.00,,,-99.99,,2013-06-14 03:22:00,
2013-06-13 21:34:00,74.0,41.0,-100.00,SE,135,7.0,19.0,31,0.00,,,-99.99,,2013-06-14 03:34:00,
2013-06-13 21:43:00,73.0,41.0,-100.00,SE,135,7.0,12.0,31,0.00,,,-99.99,,2013-06-14 03:43:00,
2013-06-13 21:52:00,74.0,41.0,-100.00,SE,145,4.0,14.0,30,0.00,,,-99.99,,2013-06-14 03:52:00,
2013-06-13 22:01:00,72.0,40.0,-100.00,SE,125,7.0,14.0,31,0.00,,,-99.99,,2013-06-14 04:01:00,
2013-06-13 22:12:00,73.0,41.0,-100.00,SSE,150,7.0,23.0,31,0.00,,,-99.99,,2013-06-14 04:12:00,
2013-06-13 22:22:00,73.0,41.0,-100.00,SE,135,7.0,15.0,31,0.00,,,-99.99,,2013-06-14 04:22:00,
2013-06-13 22:33:00,72.0,41.0,-100.00,SE,125,2.0,9.0,32,0.00,,,-99.99,,2013-06-14 04:33:00,
2013-06-13 22:43:00,71.0,41.0,-100.00,WNW,295,1.0,7.0,33,0.00,,,-99.99,,2013-06-14 04:43:00,
2013-06-13 22:53:00,72.0,42.0,-100.00,ESE,120,11.0,19.0,33,0.00,,,-99.99,,2013-06-14 04:53:00,
2013-06-13 23:02:00,74.0,42.0,-100.00,SE,125,14.0,22.0,32,0.00,,,-99.99,,2013-06-14 05:02:00,
2013-06-13 23:11:00,73.0,42.0,-100.00,SE,130,8.0,15.0,32,0.00,,,-99.99,,2013-06-14 05:11:00,
2013-06-13 23:22:00,71.0,41.0,-100.00,SE,125,4.0,12.0,33,0.00,,,-99.99,,2013-06-14 05:22:00,
2013-06-13 23:34:00,72.0,41.0,-100.00,ESE,115,9.0,21.0,33,0.00,,,-99.99,,2013-06-14 05:34:00,
2013-06-13 23:43:00,72.0,41.0,-100.00,SE,135,9.0,18.0,33,0.00,,,-99.99,,2013-06-14 05:43:00,
2013-06-13 23:52:00,71.0,41.0,-100.00,ESE,120,11.0,17.0,33,0.00,,,-99.99,,2013-06-14 05:52:00,